OK1PMP-6 Weather Reports


time (UTC)temp
F
wind
direction
speed
knots
gust
knots
rain 1hr
in
rain 24hr
in
rain mn
in
humidity
%
barometer
mb
20260905212035 58 351 0.0 0.0 0.00 0.08 0.08 67 1025.9
20260905211117 58 351 0.0 0.0 0.00 0.08 0.08 67 1025.9
20260905205616 59 351 0.0 0.0 0.00 0.08 0.08 64 1025.5
20260905204108 60 351 0.0 1.7 0.00 0.08 0.08 61 1025.5
20260905202628 61 334 0.0 0.9 0.00 0.08 0.08 59 1025.3
20260905201107 62 286 0.0 1.7 0.00 0.08 0.08 58 1025.1
20260905195607 62 270 0.0 1.7 0.00 0.08 0.08 56 1024.7
20260905194107 62 247 0.0 2.6 0.00 0.08 0.08 56 1024.4
20260905192607 62 273 0.0 1.7 0.00 0.08 0.08 57 1024.5
20260905191114 62 282 0.0 2.6 0.00 0.08 0.08 55 1024.4
20260905185607 62 247 0.0 3.5 0.00 0.08 0.08 55 1024.2
20260905184114 62 283 1.7 2.6 0.00 0.08 0.08 56 1024.0
20260905182611 62 14 0.0 2.6 0.00 0.08 0.08 56 1023.8
20260905181107 62 262 0.0 1.7 0.00 0.08 0.08 56 1023.5
20260905175608 63 239 0.0 0.9 0.00 0.08 0.08 55 1023.5
20260905174107 64 278 0.0 3.5 0.00 0.08 0.08 53 1023.1
20260905172607 65 215 0.9 2.6 0.00 0.08 0.08 51 1022.8
20260905171107 66 334 0.0 2.6 0.00 0.08 0.08 50 1022.9
20260905165611 66 307 0.0 2.6 0.00 0.08 0.08 49 1022.7
20260905164108 67 279 0.0 2.6 0.00 0.08 0.08 47 1022.6
20260905162610 68 359 0.0 5.2 0.00 0.08 0.08 46 1022.6
20260905161107 70 314 0.0 3.5 0.00 0.08 0.08 44 1022.1
20260905155604 70 286 1.7 3.5 0.00 0.08 0.08 45 1022.0
20260905154049 71 300 0.0 7.0 0.00 0.08 0.08 45 1022.0
20260905152549 69 275 0.9 6.1 0.00 0.08 0.08 46 1022.3
20260905151049 70 291 2.6 7.8 0.00 0.08 0.08 44 1022.1
20260905145549 71 231 0.0 7.8 0.00 0.08 0.08 46 1022.0
20260905144051 71 309 0.9 5.2 0.00 0.08 0.08 44 1021.8
20260905142550 71 328 0.0 5.2 0.00 0.08 0.08 47 1021.9
20260905141050 70 245 2.6 6.1 0.00 0.08 0.08 47 1021.8
20260905135549 71 290 3.5 6.1 0.00 0.08 0.08 45 1022.0
20260905134048 71 285 1.7 5.2 0.00 0.08 0.08 46 1021.9
20260905132550 71 274 0.9 7.0 0.00 0.08 0.08 46 1022.2
20260905131049 71 198 0.9 5.2 0.00 0.08 0.08 47 1021.9
20260905125552 71 204 0.9 7.0 0.00 0.08 0.08 47 1022.1
20260905124048 71 251 1.7 8.7 0.00 0.08 0.08 47 1022.1
20260905122549 70 289 1.7 7.0 0.00 0.08 0.08 48 1022.2
20260905121049 70 274 3.5 11.3 0.00 0.08 0.08 49 1022.3
20260905115548 70 288 1.7 6.1 0.00 0.08 0.08 52 1022.5
20260905114050 68 249 0.9 6.1 0.00 0.08 0.08 53 1022.7
20260905112549 70 271 1.7 3.5 0.00 0.08 0.08 52 1022.4
20260905111053 69 322 0.0 5.2 0.00 0.08 0.08 52 1022.7
20260905105548 68 289 0.0 5.2 0.00 0.08 0.08 54 1022.5
20260905104048 70 280 0.0 9.6 0.00 0.08 0.08 53 1022.5
20260905102548 69 282 1.7 7.8 0.00 0.08 0.08 55 1022.7
20260905101048 68 206 0.0 6.1 0.00 0.08 0.08 57 1022.8
20260905095548 68 275 4.3 9.6 0.00 0.08 0.08 57 1022.3
20260905094048 69 265 0.9 5.2 0.00 0.08 0.08 57 1022.4
20260905092551 68 251 1.7 11.3 0.00 0.08 0.08 57 1022.6
20260905091048 71 283 2.6 7.0 0.00 0.08 0.08 58 1022.6
20260905085548 69 313 0.9 12.2 0.00 0.08 0.08 63 1022.3
20260905084047 70 271 1.7 8.7 0.00 0.08 0.08 63 1022.4
20260905082541 67 259 0.9 11.3 0.00 0.08 0.08 68 1022.4
20260905081042 65 225 0.9 3.5 0.00 0.08 0.08 73 1022.1
20260905075540 66 229 0.9 6.1 0.00 0.08 0.08 73 1022.1
20260905074041 65 277 0.0 7.8 0.00 0.08 0.08 75 1021.9
20260905072540 64 251 0.9 8.7 0.00 0.08 0.08 76 1021.9
20260905071037 60 265 1.7 6.1 0.00 0.08 0.08 82 1021.8
20260905065538 62 258 0.9 5.2 0.00 0.08 0.08 77 1021.7
20260905064033 62 280 0.9 9.6 0.00 0.08 0.08 80 1021.7
20260905062414 64 267 0.0 5.2 0.00 0.08 0.08 77 1021.7
20260905060908 63 263 0.9 7.0 0.00 0.08 0.08 80 1021.5
20260905055408 60 239 0.0 2.6 0.00 0.08 0.08 84 1021.5
20260905053907 58 262 0.0 1.7 0.00 0.08 0.08 88 1021.2
20260905052407 55 276 0.0 2.6 0.00 0.08 0.08 90 1021.0
20260905050907 55 248 0.0 2.6 0.00 0.08 0.08 90 1020.7
20260905045414 55 268 0.0 5.2 0.00 0.08 0.08 90 1020.6
20260905043908 55 230 0.0 3.5 0.01 0.08 0.08 91 1020.1
20260905042407 56 280 0.0 3.5 0.04 0.08 0.08 91 1020.3
20260905040909 56 234 1.7 7.8 0.05 0.08 0.08 90 1020.0
20260905035407 56 222 0.9 5.2 0.06 0.08 0.08 90 1019.9
20260905033907 56 223 1.7 8.7 0.05 0.07 0.07 89 1019.1
20260905032407 57 270 0.0 7.0 0.02 0.04 0.04 89 1020.1
20260905030913 58 224 0.0 3.5 0.03 0.04 0.04 89 1019.9
20260905025407 58 268 0.0 2.6 0.02 0.02 0.02 89 1019.3
20260905023908 59 256 0.9 6.1 0.02 0.02 0.02 90 1019.3
20260905022409 59 228 1.7 6.1 0.02 0.02 0.02 89 1019.0
20260905020910 59 209 0.0 0.0 0.01 0.01 0.01 89 1019.4
20260905015345 60 209 0.9 3.5 0.01 0.01 0.01 88 1018.0
20260905013837 60 234 0.0 3.5 0.00 0.00 0.00 86 1018.7
20260905012337 60 245 1.7 2.6 0.00 0.00 0.00 86 1018.4
20260905010830 60 285 0.0 0.9 0.00 0.00 0.00 86 1018.5
20260905005325 61 311 0.0 0.0 0.00 0.00 0.00 85 1018.8
20260905003823 61 311 0.0 1.7 0.00 0.00 0.00 85 1018.3
20260905002322 61 335 0.0 1.7 0.00 0.00 0.00 85 1018.0
20260905000822 62 289 0.0 2.6 0.00 0.00 0.00 83 1018.3
20260904235319 62 326 0.9 3.5 0.00 0.00 0.00 82 1018.0
20260904233818 63 321 0.9 9.6 0.00 0.00 0.00 80 1017.6
20260904232317 64 283 1.7 7.0 0.00 0.00 0.00 78 1017.7
20260904230810 64 251 2.6 7.8 0.00 0.00 0.00 74 1017.0
20260904225311 64 301 1.7 7.0 0.00 0.00 0.00 74 1016.7
20260904223754 64 345 0.0 7.8 0.00 0.00 0.00 74 1016.3
20260904222253 63 13 2.6 11.3 0.00 0.00 0.00 74 1016.1
20260904220751 63 46 1.7 7.8 0.00 0.00 0.00 73 1016.0
20260904215248 64 342 2.6 9.6 0.00 0.00 0.00 71 1015.3
20260904213757 64 309 0.9 7.0 0.00 0.00 0.00 72 1015.1
20260904212239 65 4 1.7 6.1 0.00 0.00 0.00 73 1014.8